BUGSAT-1 (TITA)
1 40014U 14033E   15359.50862287  .00002794  00000-0  26554-3 0  9998
2 40014  97.9567 266.2860 0031775 316.7105  43.1618 14.93967870 82603
TABLETSAT-AURORA
1 40017U 14033H   15359.35289357  .00002195  00000-0  22164-3 0  9993
2 40017  97.9525 264.0918 0023495 314.8454  45.0857 14.91936204 82461
DUCHIFAT-1              
1 40021U 14033M   15359.77441822  .00002085  00000-0  22855-3 0  9996
2 40021  97.9423 260.8698 0011955 278.2318  81.7543 14.88802131 82301
NANOSATC-BR1
1 40024U 14033Q   15359.48790191  .00002368  00000-0  26212-3 0  9998
2 40024  97.9402 260.1863 0011167 278.6452  81.3499 14.88281021 82244
QB50P1                  
1 40025U 14033R   15359.67545178  .00001667  00000-0  18916-3 0  9996
2 40025  97.9399 260.0866 0011379 279.1149  80.8780 14.87664437 82259
QB50P2                  
1 40032U 14033Y   15359.76667097  .00001463  00000-0  16854-3 0  9992
2 40032  97.9391 259.7827 0010696 271.4590  88.5400 14.87232329 82241
ANTELSAT                
1 40034U 14033AA  15359.68348585  .00001675  00000-0  26096-3 0  9997
2 40034  97.9229 247.3067 0058417 225.4445 134.1987 14.73134287 81485
TIGRISAT                
1 40043U 14033AK  15359.63390330  .00000900  00000-0  14233-3 0  9997
2 40043  97.9224 247.7262 0059530 227.7143 131.9011 14.73570134 81363
AISAT
1 40054U 14034B   15359.50312483  .00002079  00000-0  30869-3 0  9991
2 40054  98.2054  80.1915 0012521 338.4675  21.6005 14.76104162 80075
METEOR-M 2
1 40069U 14037A   15359.52170549 -.00000003  00000-0  19254-4 0  9999
2 40069  98.7333  52.1475 0005343 342.7294  17.3701 14.20622886 75936
UKUBE-1                 
1 40074U 14037F   15359.85533914  .00002176  00000-0  27671-3 0  9993
2 40074  98.3445  80.4461 0004865   3.7390 356.3841 14.82725091 79238
ARSAT 1
1 40272U 14062B   15359.33752999 -.00000269  00000-0  00000+0 0  9995
2 40272   0.0144  14.6239 0001738 258.5691 230.0441  1.00272940  4515
CHUBUSAT-1              
1 40300U 14070C   15359.83397205  .00005709  00000-0  27503-3 0  9990
2 40300  97.4413  77.6970 0021297 183.3581 315.9814 15.18936322 62855
TSUBAME
1 40302U 14070E   15358.87134758  .00006374  00000-0  34417-3 0  9998
2 40302  97.4328  73.4882 0041459 196.7783 296.0015 15.14324647 62514
GRIFEX
1 40379U 15003D   15359.39062093  .00005928  00000-0  28963-3 0  9992
2 40379  99.0965  68.0086 0152869 348.7387  11.0428 15.09026430 49359
LAMBDA-SAT
1 40458U 98067GB  15136.30676273  .20783109  12527-4  14817-2 0  9995
2 40458 051.6075 233.7697 0010355 318.5347 043.1720 16.39926603 21161
NO-84
1 40654U 15025X   15358.32405324  .00021636  00000-0  50418-3 0 02225
2 40654 054.9877 112.1473 0225631 357.4025 002.5620 15.19928284033027
NO-83
1 40655U 15025X   15358.54531715  .00025889  00000-0  57999-3 0 02274
2 40655 054.9856 109.4381 0215385 358.6076 001.3524 15.22533010033085
DEORBITSAIL             
1 40719U 15032E   15359.17435967  .00001988  00000-0  30181-3 0  9999
2 40719  98.0360 247.1743 0018202  78.9084 281.4170 14.75094518 24683
SERPENS                 
1 40897U 98067GX  15359.55080647  .00091215  00000-0  80461-3 0  9996
2 40897  51.6352 204.7036 0004798 250.8701 109.1776 15.67932748 15352
S-CUBE                  
1 40898U 98067GY  15359.85885963  .00032759  00000-0  38614-3 0  9995
2 40898  51.6381 205.2686 0006118 273.2767  86.7527 15.61040402 15378
XW-2A                   
1 40903U 15049E   15359.87873994  .00009279  00000-0  27809-3 0  9999
2 40903  97.4521   8.0753 0017941  43.0915  76.2019 15.34564423 14808
XW-2C                   
1 40906U 15049H   15359.87247634  .00004883  00000-0  28137-3 0  9999
2 40906  97.4543   5.7992 0014209 281.4520 128.2732 15.12775051 14647
XW-2D                   
1 40907U 15049J   15359.82269853  .00005381  00000-0  30995-3 0  9991
2 40907  97.4510   5.7008 0013758 281.1679 202.5900 15.12752021 14634
LILACSAT 2              
1 40908U 15049K   15359.85818466  .00002738  00000-0  16267-3 0  9994
2 40908  97.4606   5.7747 0015076 275.1654 205.4400 15.12034312 14635
XW-2E                   
1 40909U 15049L   15359.91269755  .00006833  00000-0  38635-3 0  9996
2 40909  97.4537   5.8929 0013774 287.1707 112.7383 15.13319515 14651
XW-2F                   
1 40910U 15049M   15359.88392505  .00007429  00000-0  42482-3 0  9991
2 40910  97.4540   5.7967 0014883 279.6190 164.9531 15.12867067 14532
XW-2B                   
1 40911U 15049N   15359.82172602  .00004957  00000-0  28577-3 0  9992
2 40911  97.4564   5.7646 0013619 280.9795 204.3317 15.12760113 14530
TW-1C
1 40926U 15051B   15358.79103693  .00015767  00000-0  50583-3 0  9993
2 40926  97.2980  32.8883 0014888 323.4942 145.0830 15.32302569 13861
TW-1A
1 40928U 15051D   15358.80770167  .00007975  00000-0  26616-3 0  9995
2 40928  97.2927  32.7835 0014113 339.2861 108.1523 15.31222858 13866
IO-86
1 40931U 15052B   15358.10845850  .00000934  00000-0  41368-4 0  9995
2 40931   6.0001 130.3400 0013541 146.5096 213.5080 14.76397586 12864
ARSAT 2
1 40941U 15054B   15358.96667872 -.00000233  00000-0  00000+0 0  9994
2 40941   0.0230 350.9302 0001626 288.8170  80.2345  1.00271559   941
AO-85
1 40967U 15058D   15358.49940206  .00003333  00000-0  35789-3 0 00810
2 40967 064.7795 058.4719 0217174 258.8481 098.8101 14.74580402011226
LISA PATHFINDER         
1 41043U 15070A   15344.77031519  .00118629  00000-0  48222-3 0  9993
2 41043   5.9751 316.7854 0867733 165.2477 197.5189 14.15678921  1062
2015-077A               
1 41166U 15077A   15359.64447476  .00003621  00000-0  18614-3 0  9998
2 41166  14.9809 143.5253 0012204 111.6577 356.7280 15.08200885  1347
2015-077B               
1 41167U 15077B   15359.64270984  .00002484  00000-0  11526-3 0  9998
2 41167  14.9804 143.5567 0011845 109.5941 346.2527 15.08101975  1340
ATHENOXAT-1             
1 41168U 15077C   15359.70914781  .00009822  00000-0  56850-3 0  9998
2 41168  14.9886 142.9945 0012788 113.1817 357.2609 15.08556156  1353
2015-077D               
1 41169U 15077D   15359.71266119  .00004713  00000-0  25667-3 0  9991
2 41169  14.9788 143.0644 0010694 107.6075   2.8652 15.07937836  1359
2015-077E               
1 41170U 15077E   15359.70522384  .00008672  00000-0  48846-3 0  9993
2 41170  14.9879 142.9825 0015396 123.6492 345.1909 15.09143395  1355
2015-077F               
1 41171U 15077F   15359.71469035  .00006968  00000-0  40197-3 0  9995
2 41171  14.9901 143.0653 0010666 106.1318   5.8939 15.07673049  1356
2015-082A               
1 41191U 15082A   15359.66375878  .00000034  00000-0  00000+0 0  9991
2 41191  22.3927  64.5212 5949537 359.9866 107.4554  2.02150402    03
2015-082B               
1 41192U 15082B   15359.52676975 -.00000120  00000-0  00000+0 0  9996
2 41192  23.0003  65.5824 6009932   3.0636   7.0978  2.16917852    06
